| time (UTC) | temp F | wind direction | speed MPH | gust MPH | rain 1hr in | rain 24hr in | rain mn in | humidity % | barometer mb |
| 20260507113610 | 37 | 0.0 | 0.0 | 0.00 | 0.00 | 0.00 | 99 | 980.1 | |
| 20260507112607 | 35 | 0.0 | 0.0 | 0.00 | 0.00 | 0.00 | 99 | 980.2 | |
| 20260507111604 | 35 | 0.0 | 0.0 | 0.00 | 0.00 | 0.00 | 92 | 980.3 | |
| 20260507110600 | 41 | 0.0 | 0.0 | 0.00 | 0.00 | 0.00 | 27 | 980.1 | |
| 20260507105558 | 42 | 0.0 | 0.0 | 0.00 | 0.00 | 0.00 | 21 | 979.7 | |
| 20260507104710 | 41 | 0.0 | 0.0 | 0.00 | 0.00 | 0.00 | 24 | 979.7 | |
| 20260507104556 | 41 | 0.0 | 0.0 | 0.00 | 0.00 | 0.00 | 24 | 979.7 | |
| 20260507082711 | 42 | 0.0 | 0.0 | 0.00 | 0.00 | 0.00 | 21 | 979.0 | |
| 20260507081708 | 40 | 0.0 | 0.0 | 0.00 | 0.00 | 0.00 | 24 | 978.9 | |
| 20260507080706 | 41 | 0.0 | 0.0 | 0.00 | 0.00 | 0.00 | 22 | 978.9 | |
| 20260507075703 | 42 | 0.0 | 0.0 | 0.00 | 0.00 | 0.00 | 15 | 978.6 | |
| 20260507074701 | 42 | 0.0 | 0.0 | 0.00 | 0.00 | 0.00 | 17 | 978.3 | |
| 20260507073659 | 41 | 0.0 | 0.0 | 0.00 | 0.00 | 0.00 | 17 | 978.5 | |
| 20260507072655 | 41 | 0.0 | 0.0 | 0.00 | 0.00 | 0.00 | 18 | 978.3 | |
| 20260507071652 | 42 | 0.0 | 0.0 | 0.00 | 0.00 | 0.00 | 15 | 978.3 | |
| 20260507070651 | 42 | 0.0 | 0.0 | 0.00 | 0.00 | 0.00 | 15 | 978.3 | |
| 20260507065647 | 41 | 0.0 | 0.0 | 0.00 | 0.00 | 0.00 | 18 | 978.2 | |
| 20260507064644 | 41 | 0.0 | 0.0 | 0.00 | 0.00 | 0.00 | 19 | 978.3 | |
| 20260507063641 | 40 | 0.0 | 0.0 | 0.00 | 0.00 | 0.00 | 19 | 978.3 | |
| 20260507062638 | 42 | 0.0 | 0.0 | 0.00 | 0.00 | 0.00 | 13 | 978.2 | |
| 20260507061635 | 41 | 0.0 | 0.0 | 0.00 | 0.00 | 0.00 | 13 | 978.2 | |
| 20260507060632 | 41 | 0.0 | 0.0 | 0.00 | 0.00 | 0.00 | 13 | 978.0 | |
| 20260507055628 | 41 | 0.0 | 0.0 | 0.00 | 0.00 | 0.00 | 12 | 977.9 | |
| 20260507054626 | 40 | 0.0 | 0.0 | 0.00 | 0.00 | 0.00 | 12 | 977.9 | |
| 20260507053624 | 40 | 0.0 | 0.0 | 0.00 | 0.00 | 0.00 | 12 | 977.9 | |
| 20260507052621 | 40 | 0.0 | 0.0 | 0.00 | 0.00 | 0.00 | 11 | 977.7 | |
| 20260507051617 | 41 | 0.0 | 0.0 | 0.00 | 0.00 | 0.00 | 977.6 | ||
| 20260507050614 | 40 | 0.0 | 0.0 | 0.00 | 0.00 | 0.00 | 13 | 977.7 | |
| 20260507045613 | 40 | 0.0 | 0.0 | 0.00 | 0.00 | 0.00 | 14 | 977.6 | |
| 20260507044726 | 39 | 0.0 | 0.0 | 0.00 | 0.00 | 0.00 | 15 | 977.4 | |
| 20260507044611 | 39 | 0.0 | 0.0 | 0.00 | 0.00 | 0.00 | 15 | 977.4 | |
| 20260506192211 | 29 | 0.0 | 0.0 | 0.00 | 0.00 | 0.00 | 51 | 974.9 | |
| 20260506191209 | 29 | 0.0 | 0.0 | 0.00 | 0.00 | 0.00 | 47 | 974.8 | |
| 20260506190206 | 29 | 0.0 | 0.0 | 0.00 | 0.00 | 0.00 | 41 | 974.7 | |
| 20260506185203 | 30 | 0.0 | 0.0 | 0.00 | 0.00 | 0.00 | 37 | 974.7 | |
| 20260506184201 | 31 | 0.0 | 0.0 | 0.00 | 0.00 | 0.00 | 34 | 974.6 | |
| 20260506183200 | 33 | 0.0 | 0.0 | 0.00 | 0.00 | 0.00 | 26 | 974.6 | |
| 20260506182156 | 34 | 0.0 | 0.0 | 0.00 | 0.00 | 0.00 | 20 | 974.5 | |
| 20260506181308 | 34 | 0.0 | 0.0 | 0.00 | 0.00 | 0.00 | 20 | 974.5 | |
| 20260506181153 | 34 | 0.0 | 0.0 | 0.00 | 0.00 | 0.00 | 19 | 974.5 | |
| 20260506180700 | 35 | 0.0 | 0.0 | 0.00 | 0.00 | 0.00 | 19 | 974.5 | |
| 20260506175656 | 35 | 0.0 | 0.0 | 0.00 | 0.00 | 0.00 | 18 | 974.3 | |
| 20260506174653 | 35 | 0.0 | 0.0 | 0.00 | 0.00 | 0.00 | 19 | 974.3 | |
| 20260506173806 | 35 | 0.0 | 0.0 | 0.00 | 0.00 | 0.00 | 20 | 974.3 | |
| 20260506173652 | 35 | 0.0 | 0.0 | 0.00 | 0.00 | 0.00 | 20 | 974.2 | |
| 20260506125935 | 36 | 0.0 | 0.0 | 0.00 | 0.00 | 0.00 | 28 | 971.9 | |
| 20260506124932 | 36 | 0.0 | 0.0 | 0.00 | 0.00 | 0.00 | 29 | 971.9 | |
| 20260506123930 | 37 | 0.0 | 0.0 | 0.00 | 0.00 | 0.00 | 25 | 971.7 | |
| 20260506122929 | 39 | 0.0 | 0.0 | 0.00 | 0.00 | 0.00 | 20 | 971.5 | |
| 20260506121925 | 39 | 0.0 | 0.0 | 0.00 | 0.00 | 0.00 | 23 | 971.3 | |
| 20260506121037 | 39 | 0.0 | 0.0 | 0.00 | 0.00 | 0.00 | 24 | 971.3 | |
| 20260506120922 | 39 | 0.0 | 0.0 | 0.00 | 0.00 | 0.00 | 24 | 971.2 | |
| 20260506120215 | 38 | 0.0 | 0.0 | 0.00 | 0.00 | 0.00 | 26 | 971.2 | |
| 20260506115212 | 38 | 0.0 | 0.0 | 0.00 | 0.00 | 0.00 | 27 | 971.0 | |
| 20260506114325 | 38 | 0.0 | 0.0 | 0.00 | 0.00 | 0.00 | 30 | 971.0 | |
| 20260506114210 | 38 | 0.0 | 0.0 | 0.00 | 0.00 | 0.00 | 31 | 970.9 |